Location: Antioch
(38.0049°N, 121.8058°W)
Time: 02:50:11
(UTC+00:00)

Cosmos 1354 Rocket - Pass Details

Date: 19 May 2026
Orbit: 761 x 778 km, 74.0° (Epoch: 9 June)

Event Time Altitude Azimuth Distance (km) Brightness Sun altitude
Rises 04:32:45 0° 357° (N) 3,237 7.9 -13.9°
Reaches altitude 10° 04:35:55 10° 17° (NNE) 2,304 6.8 -14.4°
Maximum altitude 04:39:24 18° 59° (ENE) 1,821 5.8 -14.9°
Enters shadow 04:41:34 14° 88° (E) 2,020 5.8 -15.2°
